Location: *
(43.0833°N, 13.0500°E)
Time: 10:49:16
(UTC+00:00)

Sich 1 - Pass Details

Date: 15 November 2019
Orbit: 595 x 625 km, 82.5° (Epoch: 09 December)

Event Time Altitude Azimuth Distance (km) Brightness Sun altitude
Rises 16:22:57 0° 1° (N) 2,868 6.3 -7.4°
Reaches altitude 10° 16:25:23 10° 12° (NNE) 1,965 5.3 -7.8°
Maximum altitude 16:29:15 31° 75° (ENE) 1,078 3.8 -8.5°
Drops below altitude 10° 16:33:08 10° 138° (SE) 1,967 5.4 -9.1°
Sets 16:35:34 0° 149° (SSE) 2,873 6.3 -9.6°
